This is the latest recevied weather packets stored in our database for station/object KD5FHA. If no packets are shown the sender has not sent any weather packets the latest 10 day(s).
| Time | Temp. | Humidity | Pressure | Rain* | Wind** | Luminosity | Snow |
|---|---|---|---|---|---|---|---|
| 1778008994 | 30.56° C | 63% | 1005.7 hPa | 0 mm | - | 643 W/m² | - |
| 1778008692 | 30° C | 64% | 1005.7 hPa | 0 mm | - | 891 W/m² | - |
| 1778008390 | 29.44° C | 64% | 1005.8 hPa | 0 mm | - | 833 W/m² | - |
| 1778008086 | 29.44° C | 66% | 1006 hPa | 0 mm | - | 602 W/m² | - |
| 1778007782 | 29.44° C | 65% | 1006 hPa | 0 mm | - | 703 W/m² | - |
| 1778007478 | 29.44° C | 66% | 1006 hPa | 0 mm | - | 680 W/m² | - |
| 1778007174 | 28.89° C | 66% | 1006.3 hPa | 0 mm | - | 680 W/m² | - |
| 1778006870 | 29.44° C | 65% | 1006.2 hPa | 0 mm | - | 713 W/m² | - |
| 1778006568 | 28.89° C | 67% | 1006.2 hPa | 0 mm | - | 710 W/m² | - |
| 1778006264 | 29.44° C | 66% | 1006.3 hPa | 0 mm | - | 712 W/m² | - |
| 1778005962 | 28.89° C | 67% | 1006.2 hPa | 0 mm | - | 774 W/m² | - |
| 1778005658 | 28.89° C | 66% | 1006.3 hPa | 0 mm | - | 832 W/m² | - |
| 1778005355 | 28.89° C | 67% | 1006.4 hPa | 0 mm | - | 698 W/m² | - |
| 1778005051 | 28.33° C | 69% | 1006.5 hPa | 0 mm | - | 861 W/m² | - |
| 1778004749 | 28.33° C | 69% | 1006.2 hPa | 0 mm | - | 684 W/m² | - |
| 1778004445 | 27.78° C | 69% | 1006.2 hPa | 0 mm | - | 545 W/m² | - |
| 1778004142 | 28.33° C | 68% | 1006.2 hPa | 0 mm | - | 661 W/m² | - |
| 1778003839 | 28.33° C | 69% | 1006.4 hPa | 0 mm | - | 524 W/m² | - |
| 1778003535 | 28.33° C | 68% | 1006.5 hPa | 0 mm | - | 632 W/m² | - |
| 1778003231 | 27.78° C | 68% | 1006.4 hPa | 0 mm | - | 596 W/m² | - |
| 1778002929 | 27.78° C | 70% | 1006.4 hPa | 0 mm | - | 883 W/m² | - |
| 1778002624 | 27.22° C | 70% | 1006.4 hPa | 0 mm | - | 582 W/m² | - |
| 1778002321 | 27.78° C | 69% | 1006.5 hPa | 0 mm | - | 498 W/m² | - |
| 1778002019 | 27.78° C | 70% | 1006.3 hPa | 0 mm | - | 582 W/m² | - |
| 1778001715 | 27.78° C | 70% | 1006.4 hPa | 0 mm | - | 573 W/m² | - |
* Rain latest hour (hover to see other rain measurements)
** Current wind speed in m/s (hover to see current wind gust speed)